SAS431 ESGG-EKCH

Flight info

Callsign SAS431
Flight time 0h 23m
Altitude 19000
Route TOPLA L996 ERNOV
Aircraft A20N/M-SDE2E3FGHIRWXY/LB1

Departure

Time 2026-05-07 15:10
Airport Göteborg Landvetter Airport (ESGG)

Arrival

Time 2026-05-07 15:33
Airport Copenhagen Kastrup Airport (EKCH)
Time Latitude Longitude Altitude Speed Heading
2026-05-07 14:55 57.66889 12.29412 527 ft 0 kts 117°
2026-05-07 15:03 57.66892 12.29399 527 ft 2 kts 114°
2026-05-07 15:03 57.66899 12.29370 527 ft 2 kts 109°
2026-05-07 15:03 57.66903 12.29341 527 ft 2 kts 98°
2026-05-07 15:03 57.66904 12.29311 527 ft 2 kts 76°
2026-05-07 15:04 57.66897 12.29283 527 ft 2 kts 43°
2026-05-07 15:04 57.66886 12.29268 527 ft 1 kts 26°
2026-05-07 15:04 57.66885 12.29267 527 ft 0 kts 25°
2026-05-07 15:04 57.66888 12.29270 527 ft 0 kts 25°
2026-05-07 15:06 57.66893 12.29274 527 ft 3 kts 25°
2026-05-07 15:06 57.66927 12.29303 527 ft 9 kts 25°
2026-05-07 15:07 57.66979 12.29321 528 ft 5 kts 321°
2026-05-07 15:07 57.66995 12.29246 528 ft 8 kts 291°
2026-05-07 15:07 57.67024 12.29136 528 ft 11 kts 301°
2026-05-07 15:07 57.67085 12.29061 528 ft 11 kts
2026-05-07 15:08 57.67163 12.29127 529 ft 14 kts 26°
2026-05-07 15:08 57.67259 12.29214 530 ft 17 kts 26°
2026-05-07 15:08 57.67370 12.29315 531 ft 18 kts 26°
2026-05-07 15:08 57.67452 12.29309 532 ft 12 kts 308°
2026-05-07 15:09 57.67456 12.29159 530 ft 12 kts 262°
2026-05-07 15:09 57.67434 12.29024 530 ft 8 kts 208°
2026-05-07 15:09 57.67348 12.28944 530 ft 34 kts 206°
2026-05-07 15:09 57.66898 12.28531 527 ft 112 kts 206°
2026-05-07 15:10 57.65972 12.27737 671 ft 171 kts 207°
2026-05-07 15:10 57.64828 12.26795 1400 ft 186 kts 208°
2026-05-07 15:10 57.63606 12.25789 2189 ft 197 kts 206°
2026-05-07 15:10 57.62342 12.24742 2934 ft 198 kts 206°
2026-05-07 15:11 57.61073 12.23695 3693 ft 201 kts 207°
2026-05-07 15:11 57.59778 12.22613 4339 ft 207 kts 204°
2026-05-07 15:11 57.58428 12.21628 4984 ft 212 kts 191°
2026-05-07 15:11 57.56927 12.21686 5264 ft 230 kts 168°
2026-05-07 15:12 57.55294 12.22404 5550 ft 254 kts 167°
2026-05-07 15:12 57.53487 12.23000 6319 ft 268 kts 170°
2026-05-07 15:12 57.51628 12.23599 7412 ft 272 kts 171°
2026-05-07 15:12 57.49737 12.24180 8443 ft 279 kts 172°
2026-05-07 15:13 57.47799 12.24740 9501 ft 285 kts 174°
2026-05-07 15:13 57.45827 12.25281 10519 ft 290 kts 173°
2026-05-07 15:13 57.43746 12.25839 11048 ft 314 kts 173°
2026-05-07 15:13 57.41501 12.26443 11483 ft 337 kts 174°
2026-05-07 15:14 57.39152 12.27072 12339 ft 344 kts 173°
2026-05-07 15:14 57.36769 12.27717 13258 ft 350 kts 174°
2026-05-07 15:14 57.34342 12.28374 14148 ft 355 kts 174°
2026-05-07 15:14 57.31880 12.29035 14965 ft 359 kts 174°
2026-05-07 15:15 57.29398 12.29698 15838 ft 362 kts 174°
2026-05-07 15:15 57.26883 12.30370 16646 ft 367 kts 174°
2026-05-07 15:15 57.25202 12.30820 17190 ft 370 kts 174°
2026-05-07 15:15 57.21784 12.31653 18237 ft 376 kts 174°
2026-05-07 15:16 57.19177 12.32371 18826 ft 381 kts 173°
2026-05-07 15:16 57.16551 12.33110 19042 ft 382 kts 174°
2026-05-07 15:16 57.13915 12.33824 19109 ft 383 kts 174°
2026-05-07 15:16 57.12163 12.34281 19110 ft 383 kts 174°
2026-05-07 15:17 57.09522 12.34952 19113 ft 383 kts 174°
2026-05-07 15:17 57.06876 12.35612 19113 ft 383 kts 174°
2026-05-07 15:17 57.04240 12.36264 19112 ft 382 kts 174°
2026-05-07 15:17 57.01603 12.36911 19111 ft 383 kts 174°
2026-05-07 15:18 56.98956 12.37562 19111 ft 383 kts 174°
2026-05-07 15:18 56.96316 12.38212 19116 ft 383 kts 174°
2026-05-07 15:18 56.93674 12.38862 19118 ft 383 kts 174°
2026-05-07 15:18 56.91032 12.39511 19118 ft 383 kts 174°
2026-05-07 15:19 56.88394 12.40159 19115 ft 383 kts 174°
2026-05-07 15:19 56.85754 12.40806 19118 ft 383 kts 174°
2026-05-07 15:19 56.83117 12.41452 19120 ft 383 kts 174°
2026-05-07 15:19 56.80503 12.42092 19124 ft 383 kts 174°
2026-05-07 15:20 56.76971 12.42954 19127 ft 383 kts 174°
2026-05-07 15:20 56.75221 12.43380 19116 ft 382 kts 174°
2026-05-07 15:20 56.72590 12.44019 19129 ft 382 kts 174°
2026-05-07 15:20 56.65677 12.45697 19128 ft 382 kts 174°
2026-05-07 15:21 56.55142 12.48245 19114 ft 382 kts 174°
2026-05-07 15:21 56.44588 12.50781 17805 ft 386 kts 174°
2026-05-07 15:21 56.33891 12.53336 14754 ft 381 kts 174°
2026-05-07 15:21 56.24799 12.55499 13141 ft 350 kts 173°
2026-05-07 15:22 56.20172 12.56599 12835 ft 321 kts 173°
2026-05-07 15:22 56.15908 12.57410 12252 ft 307 kts 181°
2026-05-07 15:22 56.11674 12.57418 11376 ft 304 kts 180°
2026-05-07 15:22 56.07456 12.57454 10578 ft 299 kts 179°
2026-05-07 15:23 56.03307 12.57495 9647 ft 300 kts 179°
2026-05-07 15:23 55.99185 12.57538 9018 ft 289 kts 179°
2026-05-07 15:23 55.95178 12.57578 8540 ft 289 kts 179°
2026-05-07 15:23 55.91210 12.57618 7975 ft 282 kts 179°
2026-05-07 15:24 55.87324 12.57452 7524 ft 282 kts 188°
2026-05-07 15:24 55.83596 12.55386 7071 ft 277 kts 200°
2026-05-07 15:24 55.79963 12.53016 6615 ft 276 kts 200°
2026-05-07 15:24 55.76343 12.50683 6159 ft 277 kts 200°
2026-05-07 15:25 55.72761 12.48376 5709 ft 277 kts 201°
2026-05-07 15:25 55.69174 12.46067 5266 ft 274 kts 201°
2026-05-07 15:25 55.65593 12.43765 4812 ft 274 kts 200°
2026-05-07 15:25 55.62044 12.41490 4373 ft 272 kts 200°
2026-05-07 15:26 55.60330 12.40212 4155 ft 270 kts 210°
2026-05-07 15:26 55.58789 12.38334 3957 ft 269 kts 222°
2026-05-07 15:26 55.57393 12.36151 3752 ft 266 kts 223°
2026-05-07 15:26 55.56031 12.34041 3652 ft 255 kts 222°
2026-05-07 15:27 55.54723 12.32028 3557 ft 244 kts 222°
2026-05-07 15:27 55.53456 12.30091 3366 ft 237 kts 221°
2026-05-07 15:27 55.52051 12.28635 3057 ft 237 kts 195°
2026-05-07 15:27 55.50434 12.28571 2813 ft 233 kts 165°
2026-05-07 15:28 55.49025 12.29898 2561 ft 230 kts 134°
2026-05-07 15:28 55.48165 12.32272 2502 ft 230 kts 105°
2026-05-07 15:28 55.47728 12.34964 2500 ft 228 kts 104°
2026-05-07 15:28 55.47313 12.37559 2494 ft 215 kts 100°
2026-05-07 15:29 55.47303 12.40065 2481 ft 198 kts 73°
2026-05-07 15:29 55.47867 12.42174 2386 ft 185 kts 52°
2026-05-07 15:29 55.48687 12.43866 2221 ft 178 kts 43°
2026-05-07 15:29 55.49595 12.45367 2159 ft 183 kts 40°
2026-05-07 15:30 55.50532 12.46847 2068 ft 180 kts 40°
2026-05-07 15:30 55.51470 12.48308 1986 ft 177 kts 40°
2026-05-07 15:30 55.52350 12.49678 1836 ft 164 kts 39°
2026-05-07 15:30 55.53182 12.50970 1631 ft 160 kts 40°
2026-05-07 15:31 55.54020 12.52271 1413 ft 159 kts 40°
2026-05-07 15:31 55.54842 12.53548 1224 ft 155 kts 40°
2026-05-07 15:31 55.55593 12.54716 1027 ft 136 kts 40°
2026-05-07 15:31 55.56270 12.55767 833 ft 123 kts 40°
2026-05-07 15:32 55.56923 12.56778 658 ft 123 kts 40°
2026-05-07 15:32 55.57561 12.57778 517 ft 122 kts 39°
2026-05-07 15:32 55.58180 12.58790 365 ft 120 kts 41°
2026-05-07 15:32 55.58801 12.59748 169 ft 117 kts 37°
2026-05-07 15:33 55.59422 12.60672 36 ft 115 kts 38°
2026-05-07 15:33 55.59965 12.61498 24 ft 91 kts 44°
2026-05-07 15:33 55.60293 12.62012 18 ft 33 kts 41°
2026-05-07 15:33 55.60422 12.62210 19 ft 25 kts 40°
2026-05-07 15:34 55.60562 12.62428 23 ft 28 kts 47°
2026-05-07 15:34 55.60663 12.62764 21 ft 33 kts 71°
2026-05-07 15:34 55.60745 12.63163 16 ft 34 kts 70°
2026-05-07 15:34 55.60824 12.63545 20 ft 31 kts 56°
2026-05-07 15:35 55.60985 12.63767 22 ft 29 kts 31°
2026-05-07 15:35 55.61045 12.63835 19 ft 29 kts 33°
2026-05-07 15:35 55.61211 12.64031 15 ft 29 kts 34°
2026-05-07 15:35 55.61374 12.64220 17 ft 27 kts 32°
2026-05-07 15:36 55.61529 12.64405 19 ft 26 kts 32°
2026-05-07 15:36 55.61689 12.64578 20 ft 27 kts 34°
2026-05-07 15:36 55.61849 12.64770 18 ft 29 kts 32°
2026-05-07 15:36 55.62022 12.64962 22 ft 29 kts 32°
2026-05-07 15:37 55.62185 12.65149 25 ft 28 kts 33°
2026-05-07 15:37 55.62360 12.65163 21 ft 18 kts 313°
2026-05-07 15:37 55.62367 12.65097 21 ft 3 kts 217°
2026-05-07 15:37 55.62311 12.64983 25 ft 14 kts 285°
2026-05-07 15:38 55.62373 12.64816 27 ft 19 kts 303°
2026-05-07 15:38 55.62472 12.64666 21 ft 20 kts 347°
2026-05-07 15:38 55.62624 12.64652 19 ft 23 kts
2026-05-07 15:38 55.62745 12.64664 20 ft 11 kts 351°
2026-05-07 15:39 55.62748 12.64644 20 ft 1 kts 258°
2026-05-07 15:39 55.62747 12.64614 22 ft 3 kts 282°
2026-05-07 15:39 55.62751 12.64584 20 ft 0 kts 278°